{"data":{"norad_id":52129,"intl_designator":"2022-029AT","name":"STARLINK-3661","alt_names":[],"object_type":"PAYLOAD","status":"ACTIVE","operator":null,"country":"US","launch_date":"2022-03-19","launch_site_code":"AFETR","launch_vehicle":null,"mission":null,"orbit_class":"UNKNOWN","rcs_meters":null,"size_class":null,"mass_kg":null,"dimensions":null,"purposes":["comms"],"wikipedia_slug":null,"has_3d_model":false,"image_url":null,"decayed_at":null,"tle_current":{"epoch":"2026-05-25T02:52:34.919040Z","epoch_age_seconds":64355,"freshness":"FRESH","line1":"1 52129U 22029AT  26145.11984860  .00006384  00000+0  41918-3 0  9995","line2":"2 52129  53.2120  86.0127 0001428  88.9380 271.1776 15.08806565232472","mean_motion":15.08806565,"eccentricity":0.0001428,"inclination_deg":53.212,"raan_deg":86.0127,"arg_perigee_deg":88.938,"mean_anomaly_deg":271.1776,"bstar":0.00041918,"rev_number":23247,"period_min":95.439669564269,"perigee_km":538.85770035685,"apogee_km":540.83347618407,"semimajor_km":6917.9825882705,"source":"CELESTRAK","updated_at":"2026-05-25T13:38:17.077069Z"}}}